Location: Byhalia Creek
(34.8270°N, 89.8040°W)
Time: 16:50:46
(UTC+00:00)

SL-08 R/B - Pass Details

Date: 22 April 2026
Orbit: 956 x 1010 km, 82.9° (Epoch: 9 May)

Event Time Altitude Azimuth Distance (km) Brightness Sun altitude
Rises 03:00:03 0° 353° (N) 3,661 8.2 -26.9°
Reaches altitude 10° 03:02:33 10° 353° (N) 2,717 7.4 -27.3°
Maximum altitude 03:08:47 86° 266° (W) 986 4.4 -28.3°
Enters shadow 03:09:31 72° 187° (S) 1,030 4.4 -28.4°
